| time (UTC) | temp F | wind direction | speed knots | gust knots | rain 1hr in | rain 24hr in | rain mn in | humidity % | barometer mb |
| 20260906231610 | 65 | 331 | 8.7 | 13.9 | 0.00 | 0.01 | 0.01 | 70 | 1015.0 |
| 20260906230104 | 65 | 15 | 7.8 | 11.3 | 0.01 | 0.01 | 0.01 | 69 | 1015.1 |
| 20260906224558 | 66 | 344 | 7.8 | 12.2 | 0.01 | 0.01 | 0.01 | 69 | 1015.3 |
| 20260906223105 | 65 | 301 | 7.8 | 12.2 | 0.01 | 0.01 | 0.01 | 69 | 1015.6 |
| 20260906221604 | 64 | 309 | 5.2 | 9.6 | 0.01 | 0.01 | 0.01 | 69 | 1015.7 |
| 20260906220104 | 64 | 301 | 4.3 | 7.8 | 0.00 | 0.00 | 0.00 | 69 | 1015.8 |
| 20260906214558 | 64 | 319 | 5.2 | 10.4 | 0.00 | 0.00 | 0.00 | 69 | 1015.8 |
| 20260906213103 | 64 | 45 | 1.7 | 7.8 | 0.00 | 0.00 | 0.00 | 70 | 1015.7 |
| 20260906211600 | 63 | 33 | 1.7 | 5.2 | 0.00 | 0.00 | 0.00 | 72 | 1015.8 |
| 20260906210107 | 63 | 334 | 0.9 | 7.0 | 0.00 | 0.00 | 0.00 | 73 | 1015.9 |
| 20260906204606 | 62 | 93 | 0.9 | 6.1 | 0.00 | 0.00 | 0.00 | 74 | 1015.9 |
| 20260906203105 | 62 | 23 | 2.6 | 7.0 | 0.00 | 0.00 | 0.00 | 74 | 1015.8 |
| 20260906201607 | 62 | 71 | 2.6 | 7.8 | 0.00 | 0.00 | 0.00 | 75 | 1015.9 |
| 20260906200105 | 62 | 61 | 3.5 | 7.8 | 0.00 | 0.00 | 0.00 | 75 | 1016.0 |
| 20260906194606 | 61 | 347 | 4.3 | 7.8 | 0.00 | 0.00 | 0.00 | 76 | 1016.1 |
| 20260906193101 | 60 | 51 | 4.3 | 8.7 | 0.00 | 0.00 | 0.00 | 76 | 1016.4 |
| 20260906191602 | 60 | 64 | 4.3 | 8.7 | 0.00 | 0.00 | 0.00 | 77 | 1016.4 |
| 20260906190115 | 59 | 51 | 2.6 | 7.8 | 0.00 | 0.00 | 0.00 | 78 | 1016.5 |
| 20260906184603 | 59 | 36 | 4.3 | 12.2 | 0.00 | 0.00 | 0.00 | 79 | 1016.7 |
| 20260906183106 | 59 | 51 | 3.5 | 9.6 | 0.00 | 0.00 | 0.00 | 80 | 1016.6 |
| 20260906181601 | 59 | 84 | 5.2 | 10.4 | 0.00 | 0.00 | 0.00 | 80 | 1016.7 |
| 20260906180108 | 58 | 22 | 1.7 | 8.7 | 0.00 | 0.00 | 0.00 | 80 | 1017.2 |
| 20260906174558 | 58 | 344 | 4.3 | 9.6 | 0.00 | 0.00 | 0.00 | 80 | 1017.3 |
| 20260906173105 | 58 | 49 | 5.2 | 11.3 | 0.00 | 0.00 | 0.00 | 80 | 1016.7 |
| 20260906171604 | 56 | 307 | 7.0 | 13.0 | 0.00 | 0.00 | 0.00 | 81 | 1017.6 |
| 20260906170106 | 55 | 338 | 7.0 | 10.4 | 0.00 | 0.00 | 0.00 | 81 | 1018.1 |
| 20260906164559 | 55 | 298 | 8.7 | 13.0 | 0.00 | 0.00 | 0.00 | 80 | 1018.3 |
| 20260906163105 | 54 | 294 | 7.8 | 10.4 | 0.00 | 0.00 | 0.00 | 81 | 1018.4 |
| 20260906161600 | 54 | 294 | 7.8 | 10.4 | 0.00 | 0.00 | 0.00 | 80 | 1018.6 |
| 20260906160111 | 54 | 304 | 7.8 | 13.0 | 0.00 | 0.00 | 0.00 | 80 | 1018.6 |
| 20260906154607 | 54 | 294 | 8.7 | 13.9 | 0.00 | 0.00 | 0.00 | 80 | 1018.6 |
| 20260906153105 | 54 | 313 | 9.6 | 13.9 | 0.00 | 0.00 | 0.00 | 80 | 1018.8 |
| 20260906151604 | 54 | 306 | 8.7 | 15.6 | 0.00 | 0.00 | 0.00 | 80 | 1018.9 |
| 20260906150106 | 54 | 300 | 10.4 | 14.8 | 0.00 | 0.00 | 0.00 | 80 | 1019.1 |
| 20260906144605 | 55 | 298 | 11.3 | 16.5 | 0.00 | 0.00 | 0.00 | 80 | 1019.2 |
| 20260906143102 | 56 | 266 | 10.4 | 14.8 | 0.00 | 0.00 | 0.00 | 80 | 1019.4 |
| 20260906141603 | 56 | 275 | 7.0 | 9.6 | 0.00 | 0.00 | 0.00 | 80 | 1018.9 |
| 20260906140106 | 57 | 259 | 4.3 | 7.0 | 0.00 | 0.00 | 0.00 | 80 | 1018.7 |
| 20260906134603 | 58 | 296 | 2.6 | 4.3 | 0.00 | 0.04 | 0.00 | 80 | 1018.5 |
| 20260906133126 | 58 | 325 | 1.7 | 3.5 | 0.00 | 0.04 | 0.00 | 80 | 1018.7 |
| 20260906131604 | 58 | 316 | 4.3 | 8.7 | 0.00 | 0.04 | 0.00 | 79 | 1018.6 |
| 20260906130111 | 58 | 301 | 2.6 | 6.1 | 0.00 | 0.04 | 0.00 | 79 | 1018.8 |
| 20260906124612 | 58 | 59 | 2.6 | 7.0 | 0.00 | 0.04 | 0.00 | 79 | 1018.7 |
| 20260906123102 | 58 | 57 | 2.6 | 7.0 | 0.00 | 0.04 | 0.00 | 79 | 1018.7 |
| 20260906121604 | 58 | 348 | 5.2 | 10.4 | 0.00 | 0.04 | 0.00 | 78 | 1018.6 |
| 20260906120058 | 58 | 350 | 5.2 | 9.6 | 0.00 | 0.04 | 0.00 | 79 | 1018.1 |
| 20260906114611 | 58 | 47 | 3.5 | 8.7 | 0.00 | 0.04 | 0.00 | 79 | 1018.3 |
| 20260906113101 | 58 | 327 | 6.1 | 11.3 | 0.00 | 0.04 | 0.00 | 78 | 1018.3 |
| 20260906111602 | 58 | 31 | 7.0 | 9.6 | 0.00 | 0.04 | 0.00 | 78 | 1018.7 |
| 20260906110100 | 58 | 13 | 6.1 | 9.6 | 0.00 | 0.04 | 0.00 | 78 | 1018.7 |
| 20260906104629 | 58 | 11 | 7.8 | 13.0 | 0.00 | 0.04 | 0.00 | 78 | 1019.0 |
| 20260906103105 | 58 | 350 | 7.0 | 11.3 | 0.00 | 0.04 | 0.00 | 78 | 1019.1 |
| 20260906101558 | 58 | 13 | 5.2 | 12.2 | 0.00 | 0.04 | 0.00 | 78 | 1018.9 |
| 20260906100104 | 58 | 346 | 5.2 | 9.6 | 0.00 | 0.04 | 0.00 | 78 | 1018.9 |
| 20260906094601 | 58 | 341 | 3.5 | 11.3 | 0.00 | 0.04 | 0.00 | 78 | 1018.9 |
| 20260906093123 | 58 | 336 | 6.1 | 10.4 | 0.00 | 0.04 | 0.00 | 78 | 1018.8 |
| 20260906091601 | 58 | 342 | 7.0 | 10.4 | 0.00 | 0.04 | 0.00 | 79 | 1018.7 |
| 20260906090059 | 57 | 348 | 7.0 | 11.3 | 0.00 | 0.04 | 0.00 | 79 | 1018.7 |
| 20260906084602 | 57 | 309 | 7.8 | 12.2 | 0.00 | 0.04 | 0.00 | 79 | 1019.0 |
| 20260906083102 | 57 | 317 | 6.1 | 10.4 | 0.00 | 0.04 | 0.00 | 78 | 1019.1 |
| 20260906081601 | 57 | 303 | 7.0 | 9.6 | 0.00 | 0.04 | 0.00 | 79 | 1019.5 |
| 20260906080059 | 57 | 294 | 7.0 | 10.4 | 0.00 | 0.04 | 0.00 | 78 | 1019.7 |
| 20260906074556 | 58 | 305 | 6.1 | 9.6 | 0.00 | 0.04 | 0.00 | 77 | 1019.8 |
| 20260906073101 | 58 | 321 | 4.3 | 7.8 | 0.00 | 0.04 | 0.00 | 76 | 1019.9 |
| 20260906071559 | 58 | 342 | 3.5 | 7.0 | 0.00 | 0.04 | 0.00 | 76 | 1019.9 |
| 20260906070059 | 58 | 342 | 5.2 | 10.4 | 0.00 | 0.04 | 0.00 | 76 | 1020.0 |
| 20260906064603 | 58 | 323 | 7.8 | 10.4 | 0.00 | 0.04 | 0.00 | 77 | 1019.9 |
| 20260906063100 | 57 | 350 | 5.2 | 12.2 | 0.00 | 0.04 | 0.00 | 78 | 1020.1 |
| 20260906061601 | 57 | 324 | 8.7 | 12.2 | 0.00 | 0.04 | 0.00 | 79 | 1020.3 |
| 20260906054609 | 56 | 306 | 8.7 | 11.3 | 0.00 | 0.04 | 0.04 | 78 | 1020.5 |
| 20260906053101 | 57 | 309 | 7.8 | 12.2 | 0.00 | 0.04 | 0.04 | 76 | 1020.5 |
| 20260906051559 | 58 | 325 | 6.1 | 9.6 | 0.00 | 0.04 | 0.04 | 75 | 1020.3 |
| 20260906050124 | 58 | 317 | 5.2 | 11.3 | 0.00 | 0.04 | 0.04 | 74 | 1020.1 |
| 20260906044602 | 59 | 332 | 6.1 | 12.2 | 0.00 | 0.04 | 0.04 | 74 | 1019.9 |
| 20260906043102 | 60 | 286 | 6.1 | 9.6 | 0.00 | 0.04 | 0.04 | 71 | 1019.9 |
| 20260906041559 | 60 | 299 | 6.1 | 12.2 | 0.00 | 0.04 | 0.04 | 69 | 1020.3 |
| 20260906040136 | 60 | 11 | 8.7 | 15.6 | 0.00 | 0.04 | 0.04 | 68 | 1019.3 |
| 20260906034605 | 60 | 10 | 9.6 | 14.8 | 0.00 | 0.04 | 0.04 | 67 | 1018.6 |
| 20260906033111 | 61 | 344 | 8.7 | 15.6 | 0.00 | 0.04 | 0.04 | 65 | 1019.1 |
| 20260906031606 | 62 | 334 | 9.6 | 14.8 | 0.00 | 0.04 | 0.04 | 63 | 1019.2 |
| 20260906024618 | 62 | 271 | 11.3 | 15.6 | 0.00 | 0.04 | 0.04 | 63 | 1020.4 |
| 20260906023059 | 63 | 43 | 6.1 | 13.9 | 0.00 | 0.04 | 0.04 | 61 | 1017.7 |
| 20260906021603 | 64 | 36 | 7.8 | 12.2 | 0.00 | 0.04 | 0.04 | 59 | 1017.4 |
| 20260906020108 | 65 | 38 | 7.0 | 10.4 | 0.00 | 0.04 | 0.04 | 57 | 1017.6 |
| 20260906014611 | 66 | 11 | 6.1 | 14.8 | 0.00 | 0.04 | 0.04 | 55 | 1017.4 |
| 20260906013104 | 67 | 49 | 6.1 | 12.2 | 0.00 | 0.04 | 0.04 | 52 | 1017.6 |
| 20260906011602 | 69 | 15 | 7.8 | 13.9 | 0.00 | 0.04 | 0.04 | 51 | 1017.6 |
| 20260906010103 | 70 | 344 | 9.6 | 14.8 | 0.00 | 0.04 | 0.04 | 49 | 1017.6 |
| 20260906004607 | 70 | 346 | 11.3 | 18.2 | 0.00 | 0.04 | 0.04 | 48 | 1017.6 |
| 20260906003106 | 71 | 308 | 11.3 | 20.0 | 0.00 | 0.04 | 0.04 | 49 | 1017.7 |
| 20260906001607 | 72 | 317 | 13.0 | 21.7 | 0.00 | 0.04 | 0.04 | 45 | 1017.8 |
| 20260906000108 | 73 | 333 | 9.6 | 17.4 | 0.00 | 0.04 | 0.04 | 43 | 1017.7 |
| 20260905234611 | 73 | 316 | 7.8 | 13.9 | 0.00 | 0.04 | 0.04 | 40 | 1017.8 |
| 20260905233104 | 73 | 337 | 8.7 | 15.6 | 0.00 | 0.04 | 0.04 | 39 | 1017.9 |